Regional Weather Roundup
Issued by NWS

Home | Current Version | Previous Version | Text Only | Print | Product List | Glossary On
Versions: 1 2 3 4 5 6 7 8 9 10 11 12 13 14 15 16 17 18 19 20 21 22 23 24 25 26 27 28 29 30 31 32 33 34 35 36 37 38 39 40 41 42 43 44 45 46 47 48 49 50
543
ASUS43 KBIS 221502
RWRND

NORTH DAKOTA REGIONAL WEATHER ROUNDUP
NATIONAL WEATHER SERVICE BISMARCK ND
1000 AM CDT MON MAY 22 2017

NOTE: "FAIR" INDICATES FEW OR NO CLOUDS BELOW 12,000 FEET WITH NO
SIGNIFICANT WEATHER AND/OR OBSTRUCTIONS TO VISIBILITY.


NDZ001>003-009>011-017-221600-
NORTHWEST NORTH DAKOTA

CITY           SKY/WX    TMP DP  RH WIND       PRES   REMARKS
WILLISTON      FAIR      60  39  45 VRB3      30.04R
MINOT          FAIR      57  39  51 NW13      29.98R
MINOT AFB      PTSUNNY   55  37  49 N14G20    29.98R
$$

NDZ018>021-031>035-040>046-221600-
SOUTHWEST NORTH DAKOTA

CITY           SKY/WX    TMP DP  RH WIND       PRES   REMARKS
BISMARCK       PTSUNNY   53  38  56 N6        29.97R
DICKINSON      CLOUDY    50  42  74 N10       29.99R
GARRISON         N/A     54  36  50 NE14      29.98R
HETTINGER ARPT MOSUNNY   54  43  66 NW14G21   29.99S
$$

NDZ004>008-012>016-024-026-027-054-221600-
NORTHEAST NORTH DAKOTA

CITY           SKY/WX    TMP DP  RH WIND       PRES   REMARKS
GRAND FORKS    PTSUNNY   54  45  71 NW17G28   29.84R
GRND FRKS AFB  MOSUNNY   55  44  67 N21G26    29.85S
DEVILS LAKE    PTSUNNY   52  40  63 N15       29.91R
$$

NDZ022-023-025-028>030-036>039-047>053-221600-
SOUTHEAST NORTH DAKOTA

CITY           SKY/WX    TMP DP  RH WIND       PRES   REMARKS
FARGO          MOSUNNY   56  45  66 NW18      29.85S
JAMESTOWN      PTSUNNY   54  40  59 NW15      29.89S
$$





USA.gov is the U.S. government's official web portal to all federal, state and local government web resources and services.